TimeEST,TemperatureF,Dew PointF,Humidity,Sea Level PressureIn,VisibilityMPH,Wind Direction,Wind SpeedMPH,Gust SpeedMPH,PrecipitationIn,Events,Conditions,WindDirDegrees,DateUTC
12:52 AM,23.0,19.9,88,29.75,10.0,Calm,Calm,-,N/A,,Overcast,0,2013-02-14 05:52:00
1:52 AM,25.0,21.0,85,29.75,10.0,Calm,Calm,-,N/A,,Overcast,0,2013-02-14 06:52:00
2:52 AM,24.1,21.0,88,29.76,10.0,Calm,Calm,-,N/A,,Mostly Cloudy,0,2013-02-14 07:52:00
3:52 AM,19.9,18.0,92,29.78,10.0,Calm,Calm,-,N/A,,Mostly Cloudy,0,2013-02-14 08:52:00
4:52 AM,17.1,15.1,92,29.80,9.0,Calm,Calm,-,N/A,,Clear,0,2013-02-14 09:52:00
5:43 AM,12.2,12.2,100,29.75,2.0,Calm,Calm,-,N/A,,Clear,0,2013-02-14 10:43:00
6:52 AM,12.0,10.0,92,29.85,7.0,Calm,Calm,-,N/A,,Clear,0,2013-02-14 11:52:00
7:52 AM,15.1,12.9,91,29.88,9.0,Calm,Calm,-,N/A,,Partly Cloudy,0,2013-02-14 12:52:00
8:52 AM,19.9,19.0,96,29.89,10.0,Calm,Calm,-,N/A,,Mostly Cloudy,0,2013-02-14 13:52:00
9:52 AM,34.0,18.0,52,29.90,10.0,Calm,Calm,-,N/A,,Partly Cloudy,0,2013-02-14 14:52:00
10:52 AM,35.1,17.1,48,29.91,10.0,Variable,6.9,-,N/A,,Partly Cloudy,0,2013-02-14 15:52:00
11:52 AM,35.1,17.1,48,29.91,10.0,WNW,9.2,-,N/A,,Clear,300,2013-02-14 16:52:00
12:52 PM,36.0,17.1,46,29.90,10.0,West,6.9,-,N/A,,Clear,280,2013-02-14 17:52:00
1:52 PM,37.0,17.1,44,29.89,10.0,Calm,Calm,-,N/A,,Clear,0,2013-02-14 18:52:00
2:52 PM,39.0,17.1,41,29.90,10.0,Variable,4.6,-,N/A,,Clear,0,2013-02-14 19:52:00
3:52 PM,39.0,17.1,41,29.91,10.0,WSW,4.6,-,N/A,,Clear,250,2013-02-14 20:52:00
4:52 PM,37.9,17.1,43,29.93,10.0,Calm,Calm,-,N/A,,Clear,0,2013-02-14 21:52:00
5:52 PM,28.0,19.0,69,29.96,10.0,Calm,Calm,-,N/A,,Clear,0,2013-02-14 22:52:00
6:52 PM,25.0,18.0,75,29.99,10.0,Calm,Calm,-,N/A,,Clear,0,2013-02-14 23:52:00
7:52 PM,23.0,19.0,85,29.99,10.0,South,3.5,-,N/A,,Clear,170,2013-02-15 00:52:00
8:52 PM,21.0,17.1,85,29.99,10.0,South,3.5,-,N/A,,Clear,170,2013-02-15 01:52:00
9:52 PM,19.0,17.1,92,29.99,10.0,Calm,Calm,-,N/A,,Mostly Cloudy,0,2013-02-15 02:52:00
10:52 PM,21.9,18.0,85,29.98,9.0,SSE,3.5,-,N/A,,Overcast,160,2013-02-15 03:52:00
11:52 PM,18.0,16.0,92,29.99,10.0,Calm,Calm,-,N/A,,Clear,0,2013-02-15 04:52:00